Location: Bastogne Gables
(35.1554°N, 78.9900°W)
Time: 21:23:32
(UTC+00:00)

CZ-4 R/B - Pass Details

Date: 29 October 2020
Orbit: 579 x 589 km, 97.8° (Epoch: 26 November)

Event Time Altitude Azimuth Distance (km) Brightness Sun altitude
Rises 23:38:23 0° 165° (SSE) 2,803 7.8 -15.8°
Reaches altitude 10° 23:40:32 10° 165° (SSE) 1,908 7.0 -16.2°
Maximum altitude 23:44:40 84° 78° (ENE) 597 4.3 -17.0°
Drops below altitude 10° 23:48:51 10° 350° (N) 1,922 7.1 -17.9°
Sets 23:51:01 0° 349° (N) 2,827 8.0 -18.3°
